Home > Weather > Ely > Past weeks

Flag for United Kingdom Past Weather in Ely, England, United Kingdom — Yesterday and Last 2 Weeks

Now
56 °F

Clear.


Feels Like: 56 °F
Forecast: 60 / 71 °F
Wind: 3 mph from West

Location: Mildenhall Royal Air Force Base

Current Time: Jul 26, 2016 at 5:35:30 AM

Latest Report: Jul 26, 2016 at 4:58 AM


Visibility: N/A

Pressure: 30.13 "Hg

Humidity: 94%

Dew Point: 54 °F

Location of ElyLocation

Past Weather in Ely — Graph

°F

Ely Temperature Yesterday

Maximum temperature yesterday: 73 °F (at 4:58 PM)
Minimum temperature yesterday: 57 °F (at 4:58 AM)
Average temperature yesterday: 66 °F

High & Low Weather Summary for the Past Weeks

 TemperatureHumidityPressure
High88 °F (Jul 19, 3:58 PM)100% (Jul 12, 3:58 AM)30.30 "Hg (Jul 12, 3:58 AM)
Low46 °F (Jul 14, 4:58 AM)32% (Jul 18, 7:58 PM)29.63 "Hg (Jul 11, 3:58 AM)
Average66 °F77%30.04 "Hg
* Reported Jul 11 3:58 AM — Jul 26 3:58 AM, Ely, Weather by CustomWeather, © 2016

Note: Actual official high and low records may vary slightly from our data, if they occured in-between our weather recording intervals... More about our weather records

Advertising

Ely Weather History for the Previous 24 Hours

Scroll right to see more
 ConditionsComfort  
Time TempWeatherWind HumidityBarometerVisibility
3:58 AM
Tue, Jul 26
58 °FPassing clouds.7 mph92%30.13 "HgN/A
2:58 AM60 °FMostly cloudy.5 mph87%30.13 "HgN/A
1:58 AM61 °FOvercast.3 mph84%30.13 "HgN/A
12:58 AM61 °FPartly cloudy.3 mph82%30.12 "HgN/A
11:58 PM
Mon, Jul 25
62 °FMostly cloudy.6 mph76%30.12 "HgN/A
10:58 PM64 °FOvercast.5 mph68%30.11 "HgN/A
10:48 PM64 °FMostly cloudy.6 mph68%30.11 "HgN/A
9:58 PM65 °FMostly cloudy.7 mph62%30.11 "HgN/A
8:58 PM65 °FOvercast.7 mph62%30.10 "HgN/A
7:58 PM66 °FSunny.8 mph55%30.08 "HgN/A
6:58 PM71 °FSunny.12 mph45%30.07 "HgN/A
5:58 PM70 °FPartly sunny.14 mph50%30.07 "HgN/A
4:58 PM73 °FPartly sunny.16 mph46%30.06 "HgN/A
3:58 PM71 °FScattered clouds.12 mph50%30.07 "HgN/A
2:58 PM72 °FPartly sunny.12 mph48%30.07 "HgN/A
1:58 PM71 °FPartly sunny.15 mph49%30.07 "HgN/A
1:03 PM72 °FPartly sunny.13 mph53%30.06 "HgN/A
12:58 PM71 °FPartly sunny.16 mph52%30.07 "HgN/A
11:58 AM69 °FBroken clouds.13 mph58%30.06 "HgN/A
10:58 AM68 °FScattered clouds.9 mph66%30.07 "HgN/A
10:03 AM66 °FBroken clouds.7 mph73%30.05 "HgN/A
9:58 AM66 °FPartly sunny.12 mph73%30.06 "HgN/A
8:58 AM64 °FBroken clouds.9 mph84%30.07 "HgN/A
7:58 AM61 °FMostly cloudy.10 mph90%30.06 "HgN/A
6:58 AM60 °FMostly cloudy.10 mph95%30.04 "HgN/A
5:58 AM58 °FOvercast.8 mph98%30.04 "HgN/A
Weather by CustomWeather, © 2016

See weather overviewHow to use our weather pages